Location: Gälforsberget
(66.6500°N, 22.4167°E)
Time: 18:55:18
(UTC+00:00)

Cosmos 1980 Rocket - Pass Details

Date: 11 April 2026
Orbit: 826 x 850 km, 71.0° (Epoch: 19 May)

Event Time Altitude Azimuth Distance (km) Brightness Sun altitude
Rises 21:43:11 0° 293° (WNW) 3,409 5.9 -14.3°
Reaches altitude 10° 21:45:39 10° 296° (WNW) 2,477 5.2 -14.3°
Maximum altitude 21:51:19 64° 18° (NNE) 943 2.7 -14.4°
Drops below altitude 10° 21:56:59 10° 100° (E) 2,484 4.4 -14.5°
Sets 21:59:29 0° 104° (ESE) 3,419 5.1 -14.5°
